Погода в Клетско-Почтовском

Россия / Волгоградская область     49°35′23″N   43°03′21″E
темп.,
°C
ветер,
м/с
пор.,
м/с
влажн.,
%
обл.,
%
осадки,
мм/ч
давл.,
гПа
погр.,
м
12 мая, ср
ср1200:00+8в61478100 0.0 1021301
03:00+8всв2378100 0.0 102155
06:00+9св4117795 0.0 1021358
09:00+14вюв455899 0.0 1020692
12:00+18вюв56425 0.0 10191795
15:00+20юв67387 0.0 10182115
18:00+19юв46455 0.0 1018644
21:00+15вюв47615 0.0 1018122
13 мая, чт
чт1300:00+13в34795 0.0 101864
03:00+12св338199 0.0 101633
06:00+14св2386100 0.0 101683
09:00+19в11685 0.0 1015422
12:00+23юв23498 0.0 10161646
15:00+26ююв453968 0.0 10152626
18:00+24юв354998 0.0 1015116
21:00+21ююв3657100 0.0 1016125
14 мая, пт
пт1400:00+18вюв346799 0.0 101649
03:00+17вюв4573100 0.0 101780
06:00+17в3872100 0.0 1016206
09:00+23юв57575 0.0 1016546
12:00+27юв67425 0.0 10161100
15:00+28ююв79375 0.0 10151569
18:00+28юв48449 0.0 1014275
21:00+24юв7174166 0.0 1014440
15 мая, сб
сб1500:00+21юв715305 0.0 1015437
03:00+19юв61631100 0.0 1015381
06:00+18юв51344100 0.0 1015352
09:00+24ююв7143399 0.0 1015645
12:00+28ююв913265 0.0 10151319
15:00+30ююв911255 0.0 10141892
18:00+27ю47395 0.0 1014203
21:00+22ююв22505 0.0 101411
16 мая, вс
вс1600:00+19ю345015 0.0 101452
03:00+18юв4948100 0.0 1014169
06:00+18ююв3105698 0.0 1015221
09:00+24ююв59385 0.0 1014554
12:00+28ююв69305 0.0 10141458
15:00+30юв68265 0.0 10131926
18:00+28в23385 0.0 1012109
21:00+22в410471 0.0 1012171